SCP
0 0 0 0 0 0 0 0 0 0 0 0 0 0 0 0 0 0 0 0 0 0 0 0 0 0 0 0 0 0 0 0 0 0 0 0 0 0
0 0 0 0 0 0 0 0 0 0 0 0 0 0 0 0 0 0 0 0 0 0 0 0 0 0 0 0 0 0 0 0 0 0 0 0 0 0
0 0 0 0 0 0 0 0 0 0 0 0 0 0 0 0 0 0 0 0 0 0 0 0 0 0 0 0 0 0 0 0 0 0 0 0 0 0
0 0 0 0 0 0 0 0 0 0 0 0 0 0 0 0 0 0 0 0 0 0 0 0 0 0 0 0 0 0 0 0 0 0 0 0 0 0
0 0 0 0 0 0 0 0 0 0 0 0 0 0 0 0 0 0 0 0 0 0 0 0 0 0 0 0 0 0 0 0 0 0 0 0 0 0
0 0 0 0 0 0 0 0 0 0 0 0 0 0 0 0 0 0 0 0 0 0 0 0 0 0 0 0 0 0 0 0 0 0 0 0 0 0
0 0 0 0 0 0 0 0 0 0 0 0 0 0 0 0 0 0 0 0 0 0 0 0 0 0 0 0 0 0 0 0 0 0 0 0 0 0
0 0 0 0 0 0 0 0 0 0 0 0 0 0 0 0 0 0 0 0 0 0 0 0 0 0 0 0 0 0 0 0 0 0 0 0 0 0
0 0 0 0 0 0 0 0 0 0 0 0 0 0 0 0 0 0 0 0 0 0 0 0 0 0 0 0 0 0 0 0 0 0 0 0 0 0
0 0 0 0 0 0 0 0 0 0 0 0 0 0 0 0 0 0 0 0 0 0 0 0 0 0 0 0 0 0 0 0 0 0 0 0 0 0
0 0 0 0 0 0 0 0 0 0 0 0 0 0 0 0 0 0 0 0 0 0 0 0 0 0 0 0 0 0 0 0 0 0 0 0 0 0
0 0 0 0 0 0 0 0 0 0 0 0 0 0 0 0 0 0 0 0 0 0 0 0 0 0 0 0 0 0 0 0 0 0 0 0 0 0
0 0 0 0 0 0 0 0 0 0 0 0 0 0 0 0 0 0 0 0 0 0 0 0 0 0 0 0 0 0 0 0 0 0 0 0 0 0
0 0 0 0 0 0 0 0 0 0 0 0 0 0 0 0 0 0 0 0 0 0 0 0 0 0 0 0 0 0 0 0 0 0 0 0 0 0
0 0 0 0 0 0 0 0 0 0 0 0 0 0 0 0 0 0 0 0 0 0 0 0 0 0 0 0 0 0 0 0 0 0 0 0 0 0
0 0 0 0 0 0 0 0 0 0 0 0 0 0 0 0 0 0 0 0 0 0 0 0 0 0 0 0 0 0 0 0 0 0 0 0 0 -0
0 0 0 0 0 0 0 0 0 0 0 0 0 0 0 0 0 0 0 0 0 0 0 0 0 0 0 0 0 0 0 0 0 0 0 0 0 -0
0 0 0 0 0 0 0 0 0 0 0 0 0 0 0 0 0 0 0 0 0 0 0 0 0 0 0 0 0 0 0 0 0 0 0 0 0 0
0 0 0 0 0 0 0 0 0 0 0 0 0 0 0 0 0 0 0 0 0 0 0 0 0 0 0 0 0 0 0 0 0 0 0 0 0 0
0 0 0 0 0 0 0 0 0 0 0 0 0 0 0 0 0 0 0 0 0 0 0 0 0 0 0 0 0 0 0 0 0 0 0 0 0 0
0 0 0 0 0 0 0 0 0 0 0 0 0 0 0 0 0 0 0 0 0 0 0 0 0 0 0 0 0 0 0 0 0 0 0 0 0 0
0 0 0 0 0 0 0 0 0 0 0 0 0 0 0 0 0 0 0 0 0 0 0 0 0 0 0 0 0 0 0 0 0 0 0 0 0 0
0 0 0 0 0 0 0 0 0 0 0 0 0 0 0 0 0 0 0 0 0 0 0 0 0 0 0 0 0 0 0 0 0 0 0 0 0 0
Wind_Speed
2 2 2 1 2 2 1 1 1 1 1 1 1 1 1 2 2 2 3 5 5 6 6 6 7 8 8 8 8 9 9 9 9 9 9 9 9 9
2 3 3 2 2 2 2 1 1 1 0 1 1 0 2 3 3 2 3 5 4 5 5 5 6 6 7 8 8 8 8 8 9 9 9 9 9 9
1 2 2 3 2 2 2 2 2 2 1 1 2 3 4 3 2 1 2 2 2 3 4 4 5 6 7 7 7 7 8 8 8 9 9 9 9 9
2 2 2 3 3 2 2 3 2 2 2 1 2 3 3 2 2 1 1 2 1 2 3 4 4 5 6 6 6 7 7 7 8 8 8 9 9 9
2 3 3 3 2 2 2 2 2 2 2 2 1 2 2 2 3 3 3 2 1 2 3 3 3 4 4 5 6 6 6 6 7 7 8 8 9 9
4 4 4 4 3 3 3 3 2 2 2 2 2 1 2 2 2 2 2 2 2 2 2 1 1 2 3 4 4 4 5 5 6 6 7 8 8 8
4 4 4 6 7 5 4 4 4 3 2 2 2 2 2 2 2 1 1 2 2 2 1 1 1 1 1 1 2 3 3 4 5 6 7 7 8 8
3 3 4 4 6 7 8 7 6 4 3 2 2 2 1 1 1 1 1 2 2 3 1 2 1 0 1 1 1 0 2 3 4 5 6 7 7 8
2 2 2 3 3 3 4 4 5 5 3 2 2 1 1 1 1 2 2 1 1 2 1 2 2 2 1 1 4 3 1 2 3 4 6 7 7 8
2 2 3 3 3 3 3 3 3 2 1 2 2 1 1 1 1 1 1 1 1 2 2 1 2 3 3 1 4 3 3 3 4 4 5 6 7 8
3 4 4 4 5 6 3 3 2 1 2 2 2 1 2 4 3 2 3 2 2 2 1 1 2 3 3 1 2 4 4 5 6 6 6 6 7 7
2 3 5 5 5 5 3 2 2 2 2 2 2 1 1 2 3 1 0 0 1 2 2 1 2 3 3 3 2 2 3 6 7 7 7 7 7 4
2 2 2 4 4 4 3 2 1 1 1 1 1 1 1 1 1 1 0 1 0 2 2 1 2 2 2 4 3 2 2 2 3 4 6 7 7 5
2 2 2 4 3 2 1 2 3 3 1 1 1 1 1 1 1 1 1 1 1 2 2 1 1 2 2 4 4 4 3 3 2 2 2 4 5 7
2 3 3 3 2 1 0 1 1 1 1 1 1 1 1 1 1 2 2 2 2 3 2 1 1 2 2 3 4 4 4 3 2 2 2 3 3 3
2 3 3 2 1 0 0 0 0 0 0 1 1 1 1 1 1 1 2 2 2 3 3 2 2 2 3 4 4 4 3 3 3 3 3 3 3 3
2 2 1 1 1 0 0 0 0 0 1 1 1 1 1 2 2 2 1 2 2 3 4 3 2 2 3 4 3 4 3 4 4 4 4 4 4 4
3 2 2 1 1 1 1 0 0 0 1 1 1 1 1 1 2 2 2 2 3 3 4 3 3 3 3 3 3 3 3 4 4 4 4 4 5 4
3 2 2 2 1 1 1 1 0 1 0 0 0 1 1 2 2 2 2 2 3 3 4 3 3 2 4 5 5 3 3 4 4 4 4 4 5 5
2 2 2 2 1 1 1 1 0 0 0 1 1 1 1 1 2 2 2 3 3 3 4 3 2 2 3 5 5 5 6 5 4 4 5 4 5 6
2 2 2 2 1 1 1 1 1 0 0 0 1 1 2 2 2 2 3 4 4 3 4 4 4 6 3 3 4 5 4 6 7 5 5 5 5 5
2 2 2 1 1 1 1 1 1 0 0 0 0 1 1 1 2 3 3 3 3 4 5 4 4 3 3 3 5 6 6 5 7 10 9 8 5 5
2 2 1 1 1 1 1 1 1 0 0 0 0 1 1 2 2 2 3 3 3 4 5 4 3 3 3 4 5 5 7 7 5 5 6 10 12 13
Wind_Direction
41 41 50 47 45 42 50 79 98 34 360 348 16 49 97 107 105 106 108 89 73 61 51 44 39 35 35 36 35 34 32 32 32 31 30 27 24 19
72 47 35 30 31 37 33 28 62 106 33 340 3 89 91 105 110 105 105 103 86 79 64 48 41 39 37 34 35 38 36 33 30 30 29 27 23 20
99 83 62 48 36 28 32 40 37 64 75 355 33 51 67 69 73 84 124 118 109 95 73 60 52 47 36 34 40 43 40 35 30 27 24 21 17 17
74 79 74 72 52 32 42 44 37 55 87 44 36 43 57 63 61 43 68 98 114 120 100 81 67 56 42 43 50 49 41 32 25 20 15 12 12 14
75 74 66 73 63 52 64 47 35 47 63 82 55 40 44 41 38 20 26 21 57 110 105 79 69 59 49 45 48 46 37 27 18 14 9 4 4 5
77 67 58 59 45 44 56 40 49 50 47 68 56 40 39 20 41 15 9 3 4 26 45 59 80 68 63 53 46 32 25 19 12 8 4 359 356 355
98 88 82 82 72 66 67 43 42 44 42 57 50 42 31 21 4 341 11 342 339 13 8 338 26 47 94 48 39 24 24 19 9 1 357 353 349 344
111 120 118 99 95 85 80 71 62 59 48 45 45 49 7 349 347 354 10 11 328 326 0 325 11 324 198 181 194 104 21 9 359 352 347 344 339 333
87 94 90 89 98 117 98 81 57 46 60 97 67 27 9 333 6 356 357 359 279 294 8 319 333 326 285 210 202 194 220 322 328 333 336 334 331 325
70 77 87 77 45 70 91 83 74 44 51 97 115 85 53 13 28 0 303 331 337 353 38 314 312 310 307 252 218 211 233 265 289 305 314 320 322 323
75 64 80 86 52 50 62 71 55 30 58 78 95 88 35 12 21 26 9 17 337 321 357 358 314 315 304 285 246 247 259 264 272 282 296 306 311 315
93 79 70 86 75 63 66 68 56 351 14 27 16 348 337 353 11 76 115 356 326 315 331 0 321 339 319 304 307 284 276 275 276 276 285 297 304 304
103 89 78 94 93 76 67 65 66 355 352 10 353 353 354 348 347 326 328 144 204 276 292 338 310 320 292 301 304 295 284 288 282 283 276 285 291 290
107 105 116 123 109 86 65 48 36 24 5 358 360 346 340 328 330 331 333 323 231 241 265 245 261 274 291 299 299 303 304 295 284 282 280 288 281 285
117 127 149 161 152 143 147 24 27 11 353 344 318 297 286 304 345 348 330 317 307 296 295 273 257 265 255 270 286 297 305 297 280 288 288 283 271 279
142 147 151 150 153 239 346 259 222 240 223 260 284 302 324 347 342 327 315 320 319 306 300 294 276 265 271 271 273 286 292 292 303 295 287 282 278 266
155 147 137 117 105 45 352 260 123 21 337 315 329 328 329 333 328 331 325 325 313 308 314 311 294 278 269 267 274 278 286 290 293 298 301 290 277 269
150 142 148 154 174 193 202 230 201 248 272 288 306 309 316 317 316 322 331 321 306 304 307 308 316 322 322 301 256 277 284 287 292 294 291 291 286 284
145 159 168 181 199 203 195 183 225 262 277 301 287 303 315 317 321 319 321 319 308 301 302 309 321 325 315 307 295 286 288 290 292 289 283 283 285 289
166 165 176 187 198 189 182 193 242 314 7 343 320 314 317 318 320 316 310 306 302 304 307 309 313 308 285 284 287 293 284 284 288 287 285 285 279 285
175 171 180 183 194 182 169 169 174 208 261 330 325 333 333 332 322 316 312 315 313 305 304 301 298 314 301 306 301 297 293 288 294 295 292 295 297 295
171 172 176 172 175 168 157 154 172 206 209 263 333 335 333 331 315 309 309 311 307 303 304 303 309 317 311 300 294 296 298 302 298 301 298 293 294 291
170 164 162 163 172 162 149 167 186 217 195 133 345 324 319 312 310 313 315 310 309 309 311 310 308 304 297 289 289 294 300 305 304 302 295 298 298 295